Location: Darlington Observatory
(36.4817°N, 105.8156°W)
Time: 21:34:23
(UTC-06:00)

Daily predictions for brighter satellites

Satellite Brightness Start Highest point End
(mag) Time Altitude Azimuth Time Altitude Azimuth Time Altitude Azimuth
COSMOS 2455 2.8 20:37:28 10° SSW 20:43:26 73° ESE 20:49:26 10° NNE
ERS-1 Rocket 3.6 20:38:54 10° SE 20:43:33 40° ENE 20:48:14 10° N
Resurs 01 Rocket 4.1 20:45:18 10° SSW 20:48:48 23° W 20:52:19 10° NW
CZ-2D R/B 4.1 20:55:26 10° S 20:59:14 53° W 21:03:05 10° NNW
Envisat 3.9 20:57:25 10° SE 21:01:53 32° ENE 21:06:21 10° N
CZ-2C R/B 0.4 21:01:08 10° SSE 21:03:20 59° ENE 21:05:36 10° N
Cosmos 407 Rocket 4.3 20:59:17 10° SSE 21:03:49 30° E 21:08:19 10° NE
GEOS 3 Rocket 4.0 20:59:26 10° SE 21:04:31 52° NE 21:09:35 10° NNW
Cosmos 1515 4.2 21:03:56 10° SSE 21:07:32 40° E 21:11:10 10° NNE
Cosmos 1891 Rocket 4.5 21:01:58 10° N 21:08:05 89° WSW 21:14:06 10° S
Cosmos 1602 Rocket 3.9 21:06:52 10° SSW 21:11:19 71° W 21:15:47 10° N
FENGYUN 3A 4.2 21:08:03 10° S 21:13:19 59° W 21:18:39 10° NNW
USA 186 3.3 21:11:48 10° SSW 21:14:13 27° W 21:16:31 10° NW
Cosmos 1825 Rocket 4.2 21:10:43 10° SSE 21:14:46 36° E 21:18:49 10° NNE
Lacrosse 4 Rocket 1.2 21:18:47 10° SSW 21:22:47 68° ESE 21:26:51 10° NNE
ALOS 3.6 21:19:04 10° SSW 21:23:24 38° W 21:27:46 10° NNW
Cosmos 1812 Rocket 3.5 21:20:43 10° N 21:25:08 89° E 21:29:29 11° S
Cosmos 1943 Rocket 3.7 21:24:27 10° N 21:28:37 21° ENE 21:31:53 13° E
ISS -0.1 21:27:43 10° WNW 21:29:40 15° NNW 21:31:38 10° N
H-2A R/B 2.3 21:30:32 11° S 21:34:34 70° WSW 21:38:58 10° NNW
SeaSat 1 3.4 21:32:37 18° ESE 21:35:36 34° ENE 21:40:01 10° N
Cosmos 1992 Rocket 3.9 21:31:22 10° NNW 21:36:37 84° ENE 21:40:27 19° SSE
Atlas Centaur 2 3.0 21:30:06 10° WSW 21:36:47 54° S 21:42:50 18° ESE
Cosmos 1943 3.4 21:32:43 10° SSW 21:38:22 76° WNW 21:44:05 10° NNE
Kosmos-1675 3.9 21:47:09 30° ESE 21:47:21 30° ESE 21:52:14 10° NE
Cosmos 1939 Rocket 3.5 21:48:43 16° S 21:51:54 56° W 21:55:58 10° NNW
Cosmos 1953 4.1 21:50:04 10° NE 21:52:39 16° ENE 21:52:53 16° E
USA 81 4.0 21:49:11 10° N 21:54:29 79° E 21:57:54 23° S
CZ-4B R/B 3.5 21:50:04 10° NNE 21:55:12 66° ESE 21:59:09 18° S
CZ-4 R/B 4.3 21:50:34 10° NNE 21:55:21 43° E 21:57:25 29° SSE
Cosmos 1346 Rocket 2.7 21:55:11 20° S 21:57:50 86° WNW 22:01:48 10° N
Milstar 3 Cent rocket 4.3 21:55:19 10° WSW 21:58:39 13° SW 22:01:22 10° SSW
Terra 3.6 21:57:56 16° E 21:59:08 17° ENE 22:02:08 10° NNE
CZ-4 SHROUD 3.7 21:58:18 32° SSW 21:59:28 57° WSW 22:02:36 10° NNW
PSLV R/B 3.5 21:59:04 36° SSW 22:00:06 60° W 22:03:11 10° NNW
Cosmos 1842 3.8 22:00:59 36° ESE 22:01:20 37° E 22:04:58 10° NNE
USA 245 4.3 21:58:46 28° SE 22:01:37 58° ENE 22:06:25 10° N
ARGOS 3.6 21:59:32 29° SE 22:01:52 46° ENE 22:07:02 10° N
SPOT 5 2.7 22:00:16 25° S 22:02:45 70° WSW 22:07:04 10° NNW
Cosmos 1953 Rocket 3.6 22:00:18 19° S 22:03:27 83° W 22:07:55 10° N
Cosmos-2242 4.0 22:00:23 10° NNE 22:04:17 30° ENE 22:04:55 29° E
Cosmos 2142 Rocket 4.5 22:00:22 10° N 22:06:39 89° W 22:10:41 23° S
Cosmos 1140 Rocket 3.9 22:06:28 34° SE 22:08:02 43° ESE 22:12:58 10° NNE
MetOp-B 4.1 22:05:40 27° SSE 22:08:40 88° WSW 22:14:03 10° NNW
ATLAS 3B R/B 3.5 22:01:09 10° SW 22:08:44 60° NW 22:16:12 10° NNE
Cosmos 1634 Rocket 4.1 22:07:31 10° N 22:13:41 75° W 22:17:50 22° S
H-2A R/B 3.1 22:14:20 25° E 22:15:29 28° ENE 22:19:46 10° N
Meteor 1-21 4.2 22:14:16 22° S 22:18:11 88° E 22:24:02 10° N
YAOGAN 6 2.6 22:18:24 56° S 22:19:07 81° WSW 22:22:52 10° NNW
Cosmos 676 Rocket 4.3 22:14:02 10° SSW 22:19:20 69° WNW 22:24:39 10° NNE
Cosmos 1607 4.0 22:16:52 21° S 22:21:00 57° ESE 22:27:05 10° NE
NOSS 3-2 (A) 4.4 22:22:47 28° E 22:22:47 28° E 22:27:32 10° NE
Cosmos 2369 Rocket 2.8 22:18:08 10° NNW 22:23:33 49° WSW 22:26:23 26° SSW
SPOT 1/Viking Rocket 3.5 22:22:33 39° S 22:24:34 87° WSW 22:29:45 10° NNW
Cosmos 614 Rocket 4.4 22:27:50 40° ESE 22:27:57 40° ESE 22:32:47 10° NNE
USA 234 3.9 22:24:29 24° E 22:28:16 48° NE 22:34:31 10° NW
Cosmos 1766 3.3 22:26:08 10° N 22:30:09 78° W 22:30:43 63° SSW
SL-08 RB Rocket 3.6 22:29:36 56° SE 22:30:25 71° ENE 22:34:55 10° N
Cosmos 2279 Rocket 3.9 22:25:55 10° N 22:32:12 88° E 22:34:50 38° S
NOAA 11 4.1 22:32:51 46° SSE 22:34:34 84° ENE 22:40:01 10° NNW
CARTOSAT-1 4.1 22:39:08 43° ENE 22:39:08 43° ENE 22:43:13 10° N
Cosmos 1758 3.5 22:37:32 10° N 22:41:25 63° ENE 22:41:25 63° ENE
SL-27 R/B 3.6 22:44:18 36° W 22:44:41 38° WNW 22:47:50 10° N
CZ-4C R/B 2.9 22:48:41 34° E 22:48:41 34° E 22:52:42 10° NE
IGS 5A 3.9 22:56:22 52° NE 22:56:22 52° NE 22:59:56 10° N
Cosmos 1470 4.4 22:52:31 10° NNE 22:54:45 24° NE 22:54:45 24° NE
Cosmos 1805 3.6 22:52:29 10° N 22:55:51 63° N 22:55:51 63° N
USA 238 DEB 4.1 22:49:30 10° SW 22:56:32 64° NW 23:03:33 10° NNE
USA 238 4.1 22:49:35 10° SW 22:56:37 64° NW 23:03:39 10° NNE
COSMOS 2487 4.2 22:58:54 27° NNE 22:58:54 27° NNE 23:00:42 10° NNE
DMSP B5D2-2 3.9 22:53:23 10° NNE 22:58:39 72° ESE 22:59:03 69° SE
COSMOS 2406 3.8 23:03:21 22° SW 23:06:55 55° WNW 23:12:33 10° NNE
Cosmos 2084 4.1 23:06:42 10° NW 23:10:11 49° W 23:10:11 49° W
Cosmos 1842 Rocket 3.7 23:06:25 10° N 23:10:19 69° N 23:10:19 69° N
CZ-4C R/B 4.4 23:11:59 41° W 23:11:59 41° W 23:15:34 10° NNW
Cosmos 1943 Rocket 2.6 23:07:15 10° NNW 23:12:37 50° WSW 23:13:24 46° SW
SeaSat 1 3.8 23:12:25 27° WSW 23:13:05 28° WSW 23:17:18 10° NW
Cosmos 2082 Rocket 4.3 23:16:38 13° ENE 23:16:38 13° ENE 23:17:46 10° ENE
Cosmos 1656 Rocket 3.5 23:13:39 10° NNW 23:19:21 85° ENE 23:19:38 80° SE
Landsat 7 4.5 23:20:31 45° WSW 23:20:38 46° W 23:25:13 10° NNW
Cosmos 1707 4.4 23:25:34 30° NNE 23:25:34 30° NNE 23:27:42 10° NNE
Cosmos 2208 Rocket 4.1 23:18:48 10° NNW 23:23:56 64° WSW 23:23:56 64° WSW
Atlas Centaur 2 3.5 23:19:09 10° W 23:25:27 39° SSW 23:25:27 39° SSW
Cosmos 1953 4.0 23:25:42 10° NNW 23:28:40 27° WNW 23:28:40 27° WNW
NOSS 3-2 (C) 3.3 23:30:29 76° SE 23:30:44 78° ESE 23:37:16 10° NE
Terra 2.6 23:36:49 44° W 23:36:49 44° W 23:41:02 10° NNW
Spot 4 4.3 23:38:04 53° WNW 23:38:04 53° WNW 23:42:17 10° NNW
Cosmos 1092 Rocket 4.2 23:36:22 52° SW 23:37:40 63° W 23:43:55 10° N
Cosmos 2221 3.8 23:35:01 10° N 23:37:48 36° NNE 23:37:48 36° NNE
Cosmos 1867 4.2 23:49:21 47° NE 23:49:21 47° NE 23:53:18 10° NE
Meteor 1-24 Rocket 3.8 23:52:40 75° ENE 23:52:40 75° ENE 23:58:15 10° NNE
H-2A R/B 3.4 23:54:58 29° W 23:54:58 29° W 23:59:10 10° NW
